FW8563 Weather Reports


Display with metric or nautical units.
time (UTC)temp
F
wind
direction
speed
MPH
gust
MPH
rain 1hr
in
rain 24hr
in
rain mn
in
humidity
%
barometer
mb
20260905015702 74 18 0.0 0.0 0.00 0.00 0.00 60 1022.2
20260905015200 73 18 0.0 0.0 0.00 0.00 0.00 60 1022.2
20260905014656 73 18 0.0 0.0 0.00 0.00 0.00 61 1022.2
20260905014152 73 18 0.0 0.0 0.00 0.00 0.00 62 1022.3
20260905013645 73 18 0.0 0.0 0.00 0.00 0.00 62 1022.3
20260905013143 74 18 0.0 0.0 0.00 0.00 0.00 62 1022.2
20260905012639 73 18 0.0 0.0 0.00 0.00 0.00 63 1022.3
20260905011640 73 18 0.0 0.0 0.00 0.00 0.00 63 1022.3
20260905010642 73 18 0.0 0.0 0.00 0.00 0.00 63 1022.2
20260905010137 73 16 0.0 0.0 0.00 0.00 0.00 62 1022.2
20260905005640 72 16 0.0 0.0 0.00 0.00 0.00 62 1022.3
20260905005138 72 16 0.0 0.0 0.00 0.00 0.00 62 1022.3
20260905004635 72 16 0.0 0.0 0.00 0.00 0.00 62 1022.3
20260905004135 72 271 0.0 0.0 0.00 0.00 0.00 62 1022.3
20260905003635 72 271 0.0 0.0 0.00 0.00 0.00 62 1022.3
20260905002633 72 271 0.0 0.0 0.00 0.00 0.00 64 1022.6
20260905002126 72 271 0.0 0.0 0.00 0.00 0.00 64 1022.5
20260905001628 72 271 0.0 0.0 0.00 0.00 0.00 62 1022.5
20260905000624 73 271 0.0 0.0 0.00 0.00 0.00 60 1022.5
20260905000121 73 271 0.0 0.0 0.00 0.00 0.00 59 1022.6
20260904235117 74 271 0.0 0.0 0.00 0.00 0.00 58 1022.7
20260904234617 75 271 0.0 0.0 0.00 0.00 0.00 57 1022.7
20260904234119 75 271 0.0 0.0 0.00 0.00 0.00 57 1022.7
20260904233619 75 271 0.0 0.0 0.00 0.00 0.00 57 1022.7
20260904233115 75 271 0.0 0.0 0.00 0.00 0.00 58 1022.8
20260904232614 75 271 0.0 0.0 0.00 0.00 0.00 59 1022.8
20260904232112 74 271 0.0 0.0 0.00 0.00 0.00 63 1022.7
20260904231613 74 268 0.0 0.0 0.00 0.00 0.00 63 1022.8
20260904231113 74 268 0.0 0.0 0.00 0.00 0.00 61 1022.8
20260904230607 74 268 0.0 0.0 0.00 0.00 0.00 61 1022.9
20260904230117 74 268 0.0 0.0 0.00 0.00 0.00 60 1022.9
20260904225604 74 268 0.0 0.0 0.00 0.00 0.00 59 1023.0
20260904225102 74 268 0.0 0.0 0.00 0.00 0.00 57 1023.0
20260904223604 75 268 0.0 0.0 0.00 0.00 0.00 53 1023.1
20260904223102 75 268 0.0 0.0 0.00 0.00 0.00 52 1023.1
20260904222559 76 268 0.0 0.0 0.00 0.00 0.00 52 1023.1
20260904222056 76 268 0.0 0.0 0.00 0.00 0.00 51 1023.1
20260904221556 76 268 0.0 1.0 0.00 0.00 0.00 51 1023.1
20260904221056 77 268 0.0 1.0 0.00 0.00 0.00 50 1023.1
20260904220555 76 266 0.0 0.0 0.00 0.00 0.00 51 1023.1
20260904220053 76 265 0.0 1.0 0.00 0.00 0.00 52 1023.1
20260904215553 77 266 0.0 1.0 0.00 0.00 0.00 51 1023.1
20260904215049 77 257 0.0 1.0 0.00 0.00 0.00 52 1023.1
20260904214544 77 266 0.0 1.0 0.00 0.00 0.00 53 1023.2
20260904214043 76 262 0.0 1.0 0.00 0.00 0.00 53 1023.1
20260904213541 77 245 0.0 1.0 0.00 0.00 0.00 54 1023.1
20260904213041 77 248 0.0 1.0 0.00 0.00 0.00 54 1023.1
20260904212542 77 258 0.0 1.0 0.00 0.00 0.00 54 1023.0
20260904212040 77 258 0.0 0.0 0.00 0.00 0.00 55 1023.0
20260904211540 77 250 0.0 0.0 0.00 0.00 0.00 56 1023.0
20260904210533 77 250 0.0 2.0 0.00 0.00 0.00 56 1023.1
20260904210031 77 233 0.0 0.0 0.00 0.00 0.00 56 1023.1
20260904205531 77 204 0.0 0.0 0.00 0.00 0.00 57 1023.2
20260904205031 77 204 0.0 0.0 0.00 0.00 0.00 57 1023.2
20260904204531 77 193 0.0 1.0 0.00 0.00 0.00 57 1023.2
20260904204032 77 194 0.0 1.0 0.00 0.00 0.00 57 1023.1
20260904203529 76 223 0.0 1.0 0.00 0.00 0.00 57 1023.2
20260904203023 76 209 0.0 1.0 0.00 0.00 0.00 57 1023.2
20260904202019 77 212 0.0 0.0 0.00 0.00 0.00 57 1023.2
20260904201013 77 206 0.0 0.0 0.00 0.00 0.00 57 1023.2
20260904200511 77 205 0.0 2.0 0.00 0.00 0.00 57 1023.2
20260904200011 77 205 0.0 2.0 0.00 0.00 0.00 57 1023.3
20260904195513 78 219 0.0 1.0 0.00 0.00 0.00 57 1023.1
20260904194508 78 216 0.0 2.0 0.00 0.00 0.00 56 1023.2
20260904194010 78 242 0.0 0.0 0.00 0.00 0.00 57 1023.2
20260904193507 78 242 0.0 1.0 0.00 0.00 0.00 58 1023.2
20260904193009 78 217 0.0 1.0 0.00 0.00 0.00 58 1023.2
20260904192507 78 224 0.0 0.0 0.00 0.00 0.00 59 1023.2
20260904192009 78 217 0.0 0.0 0.00 0.00 0.00 60 1023.2
20260904191000 78 207 0.0 3.0 0.00 0.00 0.00 59 1023.3
20260904190502 78 221 0.0 0.0 0.00 0.00 0.00 60 1023.3
20260904190004 78 225 0.0 1.0 0.00 0.00 0.00 60 1023.1
20260904185502 78 225 0.0 1.0 0.00 0.00 0.00 59 1023.2
20260904185000 78 212 0.0 1.0 0.00 0.00 0.00 62 1023.1
20260904184457 78 163 0.0 1.0 0.00 0.00 0.00 62 1023.1
20260904183957 79 129 0.0 1.0 0.00 0.00 0.00 61 1023.0
20260904183454 79 122 0.0 0.0 0.00 0.00 0.00 59 1023.0
20260904182955 79 155 0.0 0.0 0.00 0.00 0.00 58 1022.8
20260904181955 80 144 0.0 0.0 0.00 0.00 0.00 56 1022.6
20260904181507 80 144 0.0 1.0 0.00 0.00 0.00 55 1022.6
20260904180952 80 218 0.0 5.0 0.00 0.00 0.00 55 1022.6
20260904180450 80 222 0.0 5.0 0.00 0.00 0.00 54 1022.5
20260904175951 81 161 0.0 1.0 0.00 0.00 0.00 55 1022.5
20260904175444 81 136 0.0 1.0 0.00 0.00 0.00 55 1022.5
20260904174939 81 188 0.0 3.0 0.00 0.00 0.00 55 1022.3
20260904174440 82 216 0.0 3.0 0.00 0.00 0.00 54 1022.2
20260904173937 82 226 1.0 7.0 0.00 0.00 0.00 53 1022.3
20260904173436 83 234 1.0 7.0 0.00 0.00 0.00 53 1022.1
20260904172437 84 131 0.0 4.0 0.00 0.00 0.00 52 1022.2
20260904171938 84 220 2.0 5.0 0.00 0.00 0.00 52 1022.3
20260904170939 85 231 2.0 7.0 0.00 0.00 0.00 51 1022.3
20260904165937 86 215 1.0 6.0 0.00 0.00 0.00 50 1022.3
20260904165438 86 199 2.0 7.0 0.00 0.00 0.00 50 1022.3
20260904164939 86 240 2.0 7.0 0.00 0.00 0.00 49 1022.3
20260904164438 86 197 2.0 7.0 0.00 0.00 0.00 49 1022.3
20260904163930 87 221 2.0 6.0 0.00 0.00 0.00 48 1022.3
20260904163425 87 232 2.0 9.0 0.00 0.00 0.00 48 1022.3
20260904162420 88 195 3.0 8.0 0.00 0.00 0.00 46 1022.3
20260904161923 88 219 3.0 10.0 0.00 0.00 0.00 46 1022.3
20260904161420 88 210 3.0 10.0 0.00 0.00 0.00 45 1022.3
20260904160921 88 231 3.0 8.0 0.00 0.00 0.00 45 1022.2
20260904160420 88 220 3.0 8.0 0.00 0.00 0.00 44 1022.2
20260904155923 88 240 4.0 9.0 0.00 0.00 0.00 44 1022.3
20260904154922 89 249 4.0 10.0 0.00 0.00 0.00 42 1022.2
20260904154416 89 216 3.0 8.0 0.00 0.00 0.00 43 1022.3
20260904153916 89 214 3.0 8.0 0.00 0.00 0.00 42 1022.2
20260904153417 89 198 3.0 8.0 0.00 0.00 0.00 41 1022.3
20260904152919 89 233 4.0 11.0 0.00 0.00 0.00 41 1022.3
20260904152417 89 194 4.0 11.0 0.00 0.00 0.00 42 1022.3
20260904151917 90 253 4.0 11.0 0.00 0.00 0.00 41 1022.3
20260904151418 90 246 4.0 9.0 0.00 0.00 0.00 40 1022.3
20260904150413 90 207 3.0 8.0 0.00 0.00 0.00 39 1022.3
20260904145913 90 213 2.0 7.0 0.00 0.00 0.00 38 1022.3
20260904145412 90 242 1.0 5.0 0.00 0.00 0.00 36 1022.3
20260904144915 91 235 1.0 4.0 0.00 0.00 0.00 38 1022.3
20260904144413 90 133 2.0 7.0 0.00 0.00 0.00 39 1022.3
20260904143914 90 218 2.0 7.0 0.00 0.00 0.00 39 1022.5
20260904143414 90 221 2.0 5.0 0.00 0.00 0.00 38 1022.3
20260904142913 90 171 2.0 7.0 0.00 0.00 0.00 39 1022.5
20260904142411 90 210 2.0 8.0 0.00 0.00 0.00 37 1022.3
20260904141911 90 140 2.0 8.0 0.00 0.00 0.00 37 1022.5
20260904141408 91 229 1.0 4.0 0.00 0.00 0.00 36 1022.6
20260904140909 91 131 1.0 6.0 0.00 0.00 0.00 29 1022.5
20260904140408 91 140 1.0 6.0 0.00 0.00 0.00 31 1022.5
20260904135908 91 193 1.0 8.0 0.00 0.00 0.00 30 1022.7
20260904135409 90 210 2.0 8.0 0.00 0.00 0.00 32 1022.7
20260904134907 91 243 1.0 6.0 0.00 0.00 0.00 30 1022.6
20260904134409 91 217 1.0 5.0 0.00 0.00 0.00 29 1022.8
20260904133907 90 203 1.0 4.0 0.00 0.00 0.00 30 1022.8
20260904132905 90 205 2.0 7.0 0.00 0.00 0.00 31 1022.9
20260904132402 90 236 1.0 5.0 0.00 0.00 0.00 28 1022.8
20260904131903 90 173 1.0 5.0 0.00 0.00 0.00 29 1022.8
20260904131401 90 121 1.0 6.0 0.00 0.00 0.00 31 1023.0
20260904130903 90 103 1.0 6.0 0.00 0.00 0.00 30 1023.0
20260904130403 91 168 1.0 3.0 0.00 0.00 0.00 29 1023.1
20260904125901 90 147 1.0 5.0 0.00 0.00 0.00 30 1023.2
20260904125401 89 296 2.0 6.0 0.00 0.00 0.00 31 1023.2
20260904124900 90 217 2.0 6.0 0.00 0.00 0.00 30 1023.2
20260904124358 90 217 2.0 5.0 0.00 0.00 0.00 30 1023.3
20260904123856 90 198 1.0 6.0 0.00 0.00 0.00 33 1023.4
20260904123356 89 113 2.0 8.0 0.00 0.00 0.00 34 1023.4
20260904122357 88 208 3.0 7.0 0.00 0.00 0.00 36 1023.4
20260904121852 88 115 3.0 7.0 0.00 0.00 0.00 33 1023.5
20260904121351 88 129 2.0 6.0 0.00 0.00 0.00 35 1023.5
20260904120354 88 218 3.0 8.0 0.00 0.00 0.00 33 1023.4
20260904115855 88 218 2.0 8.0 0.00 0.00 0.00 35 1023.5
20260904115350 88 193 3.0 9.0 0.00 0.00 0.00 34 1023.5
20260904114848 88 134 3.0 9.0 0.00 0.00 0.00 34 1023.4
20260904114350 87 146 3.0 9.0 0.00 0.00 0.00 32 1023.4
20260904113851 87 148 3.0 9.0 0.00 0.00 0.00 33 1023.4
20260904113348 87 212 3.0 7.0 0.00 0.00 0.00 34 1023.5
20260904112848 87 217 3.0 8.0 0.00 0.00 0.00 33 1023.5
20260904112348 87 194 3.0 8.0 0.00 0.00 0.00 34 1023.5
20260904111848 87 217 3.0 8.0 0.00 0.00 0.00 34 1023.6
20260904110857 87 140 3.0 8.0 0.00 0.00 0.00 35 1023.5
20260904110357 87 155 3.0 6.0 0.00 0.00 0.00 37 1023.7
20260904105847 87 167 2.0 6.0 0.00 0.00 0.00 36 1023.6
20260904104836 87 91 1.0 5.0 0.00 0.00 0.00 36 1023.6
20260904104332 86 214 1.0 5.0 0.00 0.00 0.00 37 1023.7
20260904103830 86 124 2.0 6.0 0.00 0.00 0.00 37 1023.7
20260904103329 86 201 2.0 7.0 0.00 0.00 0.00 39 1023.7
20260904102831 86 243 1.0 7.0 0.00 0.00 0.00 39 1023.7
20260904102331 86 129 1.0 6.0 0.00 0.00 0.00 41 1023.7
20260904101830 86 137 1.0 6.0 0.00 0.00 0.00 39 1023.7
20260904101330 86 141 1.0 5.0 0.00 0.00 0.00 41 1023.8
20260904100832 85 146 1.0 4.0 0.00 0.00 0.00 38 1023.7
20260904100330 85 136 1.0 3.0 0.00 0.00 0.00 38 1023.9
20260904095830 85 190 0.0 3.0 0.00 0.00 0.00 40 1023.8
20260904095329 84 70 1.0 5.0 0.00 0.00 0.00 38 1023.8
20260904094826 84 69 1.0 5.0 0.00 0.00 0.00 38 1023.8
20260904093821 83 349 1.0 4.0 0.00 0.00 0.00 36 1023.8
20260904093316 83 35 2.0 4.0 0.00 0.00 0.00 36 1023.8
20260904092811 83 72 1.0 5.0 0.00 0.00 0.00 38 1023.8
20260904092312 83 30 2.0 5.0 0.00 0.00 0.00 40 1023.8
20260904091813 82 124 2.0 6.0 0.00 0.00 0.00 39 1023.8
20260904091312 83 75 2.0 6.0 0.00 0.00 0.00 39 1024.0
20260904090810 83 56 2.0 8.0 0.00 0.00 0.00 41 1023.8
20260904090311 82 339 2.0 8.0 0.00 0.00 0.00 42 1023.8
20260904085808 82 6 2.0 6.0 0.00 0.00 0.00 42 1023.7
20260904084807 82 15 0.0 2.0 0.00 0.00 0.00 45 1023.7
20260904084308 81 49 1.0 4.0 0.00 0.00 0.00 46 1023.7
20260904083808 81 89 1.0 4.0 0.00 0.00 0.00 47 1023.6
20260904083308 80 70 2.0 9.0 0.00 0.00 0.00 46 1023.5
20260904082806 80 12 3.0 9.0 0.00 0.00 0.00 45 1023.5
20260904081801 79 24 4.0 9.0 0.00 0.00 0.00 48 1023.5
20260904080300 79 64 3.0 11.0 0.00 0.00 0.00 49 1023.4
20260904075802 79 9 3.0 8.0 0.00 0.00 0.00 51 1023.3
20260904075259 78 8 3.0 10.0 0.00 0.00 0.00 52 1023.3
20260904074759 78 72 4.0 11.0 0.00 0.00 0.00 52 1023.2
20260904074300 78 69 5.0 13.0 0.00 0.00 0.00 52 1023.1
20260904073758 78 30 7.0 15.0 0.00 0.00 0.00 56 1023.0
20260904073300 77 53 9.0 17.0 0.00 0.00 0.00 55 1022.9
20260904071758 77 32 9.0 17.0 0.00 0.00 0.00 56 1022.7
20260904071254 77 13 9.0 17.0 0.00 0.00 0.00 56 1022.8
20260904070254 76 0 7.0 15.0 0.00 0.00 0.00 58 1022.7
20260904065753 76 22 7.0 14.0 0.00 0.00 0.00 58 1022.8
20260904065256 76 32 7.0 12.0 0.00 0.00 0.00 59 1022.7
20260904064756 76 13 6.0 12.0 0.00 0.00 0.00 60 1022.7
20260904063256 75 31 6.0 12.0 0.00 0.00 0.00 62 1022.6
20260904062754 75 25 7.0 13.0 0.00 0.00 0.00 63 1022.6
20260904062250 74 325 7.0 13.0 0.00 0.00 0.00 63 1022.7
20260904061752 74 44 6.0 12.0 0.00 0.00 0.00 63 1022.6
20260904061252 74 358 5.0 12.0 0.00 0.00 0.00 63 1022.6
20260904060750 74 15 6.0 11.0 0.00 0.00 0.00 62 1022.6
20260904060251 74 21 6.0 11.0 0.00 0.00 0.00 62 1022.6
20260904055750 74 15 6.0 11.0 0.00 0.00 0.00 62 1022.6
20260904055252 74 33 6.0 11.0 0.00 0.00 0.00 61 1022.5
20260904054750 74 32 5.0 10.0 0.00 0.00 0.00 61 1022.6
20260904053750 73 18 6.0 12.0 0.00 0.00 0.00 60 1022.5
20260904053250 73 8 6.0 12.0 0.00 0.00 0.00 61 1022.5
20260904052750 72 19 5.0 9.0 0.00 0.00 0.00 63 1022.5
20260904051748 71 338 4.0 8.0 0.00 0.00 0.00 64 1022.3
20260904051248 71 13 4.0 7.0 0.00 0.00 0.00 65 1022.3
20260904050749 71 354 4.0 7.0 0.00 0.00 0.00 65 1022.3
20260904050247 71 347 4.0 7.0 0.00 0.00 0.00 65 1022.2
20260904045747 71 347 4.0 8.0 0.00 0.00 0.00 65 1022.2
20260904045247 71 328 4.0 8.0 0.00 0.00 0.00 66 1022.3
20260904044748 71 24 4.0 8.0 0.00 0.00 0.00 66 1022.1
20260904044248 71 336 5.0 8.0 0.00 0.00 0.00 67 1022.1
20260904043747 71 4 5.0 8.0 0.00 0.00 0.00 67 1022.0
20260904043250 71 15 4.0 7.0 0.00 0.00 0.00 67 1022.1
20260904042748 71 8 4.0 7.0 0.00 0.00 0.00 67 1022.1
20260904042248 71 331 5.0 8.0 0.00 0.00 0.00 67 1022.1
20260904041747 71 20 4.0 8.0 0.00 0.00 0.00 67 1022.1
20260904040905 71 338 4.0 8.0 0.00 0.00 0.00 67 1022.1
20260904040648 71 10 4.0 8.0 0.00 0.00 0.00 67 1022.0
20260904040419 71 1 3.0 6.0 0.00 0.00 0.00 67 1022.0
20260904040201 72 338 3.0 7.0 0.00 0.00 0.00 66 1022.0
20260904035935 72 342 2.0 7.0 0.00 0.00 0.00 66 1022.0
20260904035714 72 339 2.0 5.0 0.00 0.00 0.00 66 1022.0
20260904035504 72 330 2.0 6.0 0.00 0.00 0.00 66 1022.0
20260904035253 72 5 3.0 6.0 0.00 0.00 0.00 66 1022.1
20260904035039 72 13 3.0 6.0 0.00 0.00 0.00 66 1022.1
20260904034827 72 358 2.0 5.0 0.00 0.00 0.00 66 1022.1
20260904034614 72 338 2.0 5.0 0.00 0.00 0.00 66 1022.1
20260904034357 72 4 2.0 5.0 0.00 0.00 0.00 66 1022.1
20260904034202 72 343 2.0 5.0 0.00 0.00 0.00 66 1022.0
20260904034023 72 337 2.0 5.0 0.00 0.00 0.00 66 1022.1
20260904033841 71 324 2.0 5.0 0.00 0.00 0.00 66 1022.1
20260904033655 71 335 1.0 4.0 0.00 0.00 0.00 67 1022.1
20260904033515 71 335 1.0 4.0 0.00 0.00 0.00 66 1022.1
20260904033332 71 352 2.0 6.0 0.00 0.00 0.00 66 1022.1
20260904031423 71 350 1.0 4.0 0.00 0.00 0.00 67 1022.3